Content
SEND FEEDBACK

Daily
Averages
Monthly
Summary
Canada

QUEBEC CITY, QUEBEC


Home > North America > Canada > Quebec
Elevation: 239 feet     Latitude: 46 48N     Longitude: 071 23W

WEATHER
 
SELECT A DAY
Number of Records: 197,121;   Date Range: 6/30/96 - 11/25/14
 
SHARE

PRINT THIS DATA

[ ← Previous Day ]
WEATHER ALMANAC - JANUARY 24, 2013
[ Next Day → ]
[ °C ]   °F
Weather ElementAverageHighLow
Temperature-7.3 °F-2 °F (4:00 pm)-13 °F (7:00 am)
Dewpoint-18.7 °F (12:32 pm)-27.4 °F (8:00 am)
Humidity52.1 %60 % (12:00 pm)42 % (4:00 pm)
Barometer29.13 in30.19 in (11:00 pm) (7:00 pm)
Wind Speed18.3 mph25.3 mph (10:00 am)
Wind Gust32.2 mph (10:00 am)
Weather ElementAverage
Visibility15.3 mi
Wind DirectionWSW (255 °)

Weather ElementTotal
Precipitation---
Heating Degree Days72.5 (Base 65)
Averaged from 32 records on January 24, 2013
WEATHER CONDITIONS BREAKOUT
WIND DIRECTION BREAKOUT
WEATHER BY HOUR - JANUARY 24, 2013
[ °C ]   °F
Local TimeTemperatureDewpointHumidityBarometerVisibilityWind DirectionWind SpeedGust SpeedPrecipitationEventsConditions
1:00 AM-11.0 °F-20.0 °F49 %30.05 inWSW (250°)11.5 mph
1:00 AM-11.2 °F-23.8 °F54 %30.06 in15.0 miWSW (250°)15.0 mphScattered Clouds
2:00 AM-11.2 °F-23.8 °F54 %30.06 in15.0 miWSW (240°)18.4 mphScattered Clouds
3:00 AM-11.2 °F-23.8 °F54 %30.06 in15.0 miWSW (240°)16.1 mphMostly Cloudy
4:00 AM-11.0 °F-20.0 °F48 %30.04 inWSW (250°)11.5 mph
4:00 AM-11.2 °F-23.8 °F54 %30.05 in15.0 miWSW (250°)21.9 mphMostly Cloudy
5:00 AM-11.2 °F-25.6 °F49 %30.06 in15.0 miWSW (250°)17.3 mphMostly Cloudy
6:00 AM-11.2 °F-23.8 °F54 %30.05 in15.0 miWSW (250°)17.3 mphMostly Cloudy
7:00 AM-13.0 °F-25.6 °F53 %30.07 in15.0 miWSW (250°)16.1 mphMostly Cloudy
7:00 AM-13.0 °F-22.0 °F49 %30.06 inWSW (250°)9.2 mph
8:00 AM-13.0 °F-27.4 °F49 %30.07 in20.0 miWSW (240°)17.3 mph23.0 mphMostly Cloudy
9:00 AM-11.2 °F-23.8 °F54 %30.07 in20.0 miWSW (250°)20.7 mphMostly Cloudy
10:00 AM-10.0 °F-19.0 °F47 %30.04 inWest (260°)19.6 mph
10:00 AM-9.4 °F-22.0 °F54 %30.05 in20.0 miWest (260°)25.3 mph32.2 mphMostly Cloudy
11:00 AM-7.6 °F-20.2 °F54 %30.04 in8.0 miWSW (250°)23.0 mph29.9 mphSnowLight Snow
12:00 PM-5.8 °F-16.6 °F60 %30.01 in8.0 miWSW (250°)23.0 mph32.2 mphSnowLight Snow
12:32 PM-4.0 °F0.0 °F15.0 miWSW (250°)24.2 mph32.2 mphSnowLow Drifting Snow
1:00 PM-3.0 °F-13.0 °F46 %30.00 inWest (260°)18.4 mph
1:00 PM-2.2 °F-14.8 °F55 %30.00 in12.0 miWest (260°)24.2 mph32.2 mphSnowLow Drifting Snow
2:00 PM-2.2 °F-14.8 °F55 %30.01 in15.0 miWest (260°)24.2 mph31.1 mphSnowLow Drifting Snow
3:00 PM-2.2 °F-14.8 °F55 %30.04 in15.0 miWest (260°)23.0 mph29.9 mphSnowLow Drifting Snow
4:00 PM-2.0 °F-13.0 °F42 %30.06 inWest (270°)11.5 mph
4:00 PM-2.2 °F-16.6 °F50 %30.07 in20.0 miWest (280°)15.0 mph20.7 mphSnowLow Drifting Snow
5:00 PM-4.0 °F-16.6 °F55 %30.08 in20.0 miWest (260°)18.4 mph28.8 mphSnowLow Drifting Snow
6:00 PM-4.0 °F-18.4 °F50 %30.10 in15.0 miWest (260°)19.6 mphSnowLow Drifting Snow
7:00 PM-4.0 °F-15.0 °F42 %30.13 inWest (270°)10.4 mph
7:00 PM-4.0 °F-18.4 °F50 %30.13 in15.0 miWest (260°)17.3 mph24.2 mphSnowLow Drifting Snow
8:00 PM-5.8 °F-18.4 °F55 %30.15 in15.0 miWest (260°)19.6 mphSnowLow Drifting Snow
9:00 PM-5.8 °F-18.4 °F55 %30.16 in15.0 miWest (270°)19.6 mphSnowLow Drifting Snow
10:00 PM-5.0 °F-13.0 °F53 %30.16 inWSW (250°)13.8 mph
10:00 PM-5.8 °F-16.6 °F60 %30.17 in15.0 miWSW (250°)21.9 mphSnowLow Drifting Snow
11:00 PM-4.0 °F-16.6 °F55 %30.19 in15.0 miWSW (250°)20.7 mphSnowLow Drifting Snow
Hourly data recorded from CYQB, located miles away from Quebec City, Quebec







STORIES FROM OUR PARTNERS